QPF
0.00 0.00 0.00 0.00 0.00 0.02 0.01 0.01 0.01 0.01 0.01 0.01 0.02 0.01 0.01 0.02 0.01 0.01 0.01 0.01 0.01 0.01 0.01 0.01 0.02 0.02 0.02 0.01 0.01 0.01 0.01 0.01 0.01 0.01 0.00 0.00 0.01 0.02 0.02 0.02 0.02 0.02 0.04 0.05 0.04 0.04 0.04 0.05 0.06
0.00 0.00 0.00 0.00 0.00 0.03 0.01 0.01 0.01 0.02 0.02 0.02 0.02 0.02 0.01 0.03 0.02 0.00 0.00 0.01 0.00 0.00 0.01 0.01 0.04 0.04 0.02 0.01 0.01 0.01 0.01 0.01 0.01 0.01 0.01 0.00 0.00 0.01 0.02 0.02 0.02 0.02 0.03 0.05 0.07 0.07 0.06 0.06 0.06
0.00 0.00 0.00 0.00 0.00 0.02 0.01 0.01 0.01 0.02 0.03 0.02 0.01 0.02 0.02 0.02 0.02 0.01 0.01 0.00 0.00 0.00 0.01 0.02 0.03 0.02 0.02 0.02 0.01 0.02 0.02 0.02 0.02 0.02 0.01 0.01 0.01 0.01 0.01 0.01 0.02 0.02 0.02 0.04 0.08 0.10 0.09 0.09 0.08
0.00 0.00 0.00 0.00 0.01 0.01 0.01 0.01 0.01 0.01 0.02 0.02 0.01 0.02 0.02 0.03 0.02 0.02 0.03 0.02 0.00 0.00 0.00 0.01 0.03 0.03 0.03 0.03 0.02 0.03 0.03 0.03 0.02 0.02 0.02 0.01 0.01 0.01 0.01 0.01 0.02 0.02 0.03 0.04 0.07 0.10 0.13 0.12 0.11
0.00 0.00 0.00 0.01 0.01 0.01 0.01 0.01 0.01 0.01 0.01 0.01 0.01 0.01 0.02 0.08 0.06 0.03 0.03 0.03 0.01 0.00 0.01 0.01 0.03 0.03 0.04 0.03 0.03 0.03 0.03 0.03 0.02 0.02 0.02 0.01 0.01 0.01 0.01 0.01 0.02 0.02 0.02 0.03 0.05 0.09 0.13 0.15 0.15
0.00 0.00 0.01 0.02 0.01 0.01 0.01 0.01 0.01 0.01 0.02 0.01 0.02 0.01 0.02 0.09 0.14 0.11 0.04 0.02 0.02 0.01 0.01 0.04 0.06 0.04 0.05 0.04 0.03 0.03 0.03 0.03 0.03 0.02 0.02 0.01 0.01 0.01 0.01 0.01 0.01 0.01 0.01 0.03 0.05 0.06 0.10 0.15 0.19
0.00 0.01 0.01 0.02 0.01 0.01 0.01 0.01 0.01 0.01 0.03 0.01 0.01 0.01 0.02 0.05 0.09 0.12 0.07 0.04 0.04 0.04 0.03 0.04 0.05 0.04 0.04 0.05 0.03 0.03 0.03 0.03 0.03 0.03 0.02 0.02 0.01 0.02 0.01 0.01 0.01 0.02 0.02 0.03 0.04 0.05 0.05 0.08 0.14
0.00 0.01 0.01 0.02 0.01 0.00 0.00 0.01 0.00 0.01 0.01 0.01 0.00 0.01 0.01 0.04 0.05 0.06 0.07 0.06 0.05 0.06 0.03 0.03 0.03 0.03 0.04 0.06 0.03 0.03 0.03 0.03 0.03 0.04 0.03 0.03 0.03 0.02 0.02 0.02 0.02 0.02 0.03 0.03 0.04 0.05 0.04 0.03 0.05
0.00 0.01 0.01 0.01 0.01 0.00 0.00 0.00 0.00 0.00 0.00 0.00 0.00 0.01 0.01 0.04 0.05 0.05 0.05 0.06 0.06 0.06 0.05 0.04 0.03 0.04 0.05 0.08 0.05 0.03 0.03 0.03 0.04 0.04 0.05 0.04 0.04 0.03 0.03 0.03 0.03 0.03 0.04 0.03 0.04 0.04 0.03 0.03 0.03
0.01 0.01 0.00 0.00 0.00 0.00 0.00 0.00 0.00 0.00 0.01 0.01 0.01 0.01 0.01 0.04 0.06 0.06 0.05 0.06 0.05 0.05 0.07 0.06 0.05 0.05 0.06 0.09 0.05 0.03 0.02 0.02 0.02 0.03 0.05 0.06 0.06 0.06 0.06 0.06 0.06 0.05 0.05 0.04 0.04 0.04 0.04 0.03 0.03
0.00 0.00 0.00 0.00 0.00 0.00 0.00 0.01 0.00 0.01 0.01 0.01 0.01 0.01 0.01 0.02 0.04 0.05 0.07 0.07 0.05 0.05 0.07 0.07 0.07 0.07 0.08 0.08 0.05 0.03 0.03 0.03 0.03 0.03 0.05 0.08 0.07 0.07 0.08 0.08 0.08 0.07 0.05 0.03 0.03 0.03 0.02 0.03 0.03
0.00 0.00 0.00 0.00 0.00 0.00 0.01 0.02 0.02 0.01 0.01 0.02 0.03 0.03 0.03 0.02 0.03 0.05 0.07 0.08 0.05 0.04 0.05 0.06 0.07 0.07 0.11 0.09 0.06 0.05 0.05 0.05 0.05 0.05 0.06 0.10 0.06 0.04 0.06 0.07 0.08 0.09 0.07 0.03 0.02 0.03 0.04 0.05 0.04
0.00 0.00 0.00 0.00 0.00 0.01 0.01 0.01 0.01 0.02 0.02 0.02 0.02 0.02 0.02 0.02 0.02 0.03 0.05 0.07 0.05 0.05 0.04 0.04 0.04 0.06 0.11 0.11 0.08 0.06 0.05 0.07 0.07 0.07 0.08 0.08 0.04 0.04 0.05 0.06 0.07 0.10 0.09 0.05 0.03 0.03 0.06 0.05 0.04
0.00 0.00 0.00 0.01 0.00 0.01 0.01 0.01 0.01 0.02 0.02 0.02 0.01 0.01 0.02 0.02 0.03 0.04 0.04 0.06 0.07 0.07 0.05 0.05 0.06 0.06 0.07 0.08 0.06 0.05 0.05 0.08 0.11 0.10 0.10 0.09 0.06 0.06 0.05 0.05 0.06 0.08 0.07 0.04 0.03 0.03 0.05 0.05 0.05
0.00 0.00 0.01 0.02 0.02 0.01 0.01 0.01 0.01 0.01 0.01 0.01 0.02 0.02 0.02 0.03 0.05 0.06 0.07 0.09 0.10 0.09 0.06 0.07 0.09 0.08 0.06 0.04 0.04 0.03 0.06 0.12 0.16 0.14 0.11 0.10 0.08 0.06 0.04 0.05 0.06 0.06 0.05 0.03 0.02 0.02 0.03 0.05 0.06
0.00 0.00 0.01 0.01 0.01 0.02 0.01 0.01 0.01 0.02 0.01 0.02 0.02 0.02 0.04 0.05 0.05 0.05 0.07 0.07 0.08 0.06 0.06 0.07 0.08 0.10 0.08 0.06 0.06 0.06 0.07 0.11 0.12 0.15 0.17 0.13 0.10 0.07 0.07 0.06 0.06 0.05 0.05 0.03 0.02 0.02 0.03 0.04 0.05
0.00 0.00 0.00 0.00 0.01 0.02 0.01 0.01 0.01 0.01 0.02 0.02 0.02 0.03 0.03 0.05 0.05 0.05 0.04 0.03 0.03 0.03 0.03 0.05 0.06 0.08 0.09 0.09 0.11 0.11 0.10 0.08 0.08 0.09 0.15 0.17 0.13 0.08 0.08 0.08 0.07 0.06 0.04 0.03 0.02 0.03 0.03 0.03 0.03
0.00 0.00 0.00 0.00 0.02 0.01 0.01 0.01 0.01 0.01 0.01 0.02 0.02 0.03 0.03 0.04 0.06 0.05 0.03 0.02 0.03 0.03 0.03 0.03 0.04 0.05 0.05 0.06 0.07 0.08 0.08 0.07 0.07 0.08 0.09 0.13 0.13 0.10 0.11 0.11 0.08 0.07 0.05 0.04 0.04 0.02 0.02 0.02 0.03
0.00 0.00 0.00 0.01 0.01 0.01 0.02 0.02 0.02 0.03 0.04 0.03 0.02 0.03 0.04 0.05 0.04 0.04 0.03 0.03 0.04 0.05 0.05 0.06 0.04 0.04 0.03 0.04 0.04 0.05 0.06 0.06 0.04 0.04 0.05 0.06 0.08 0.09 0.11 0.15 0.10 0.07 0.06 0.05 0.04 0.03 0.03 0.03 0.03
0.00 0.00 0.00 0.00 0.01 0.01 0.02 0.02 0.03 0.07 0.07 0.04 0.03 0.02 0.03 0.04 0.04 0.04 0.04 0.04 0.03 0.05 0.08 0.12 0.09 0.06 0.05 0.05 0.05 0.06 0.06 0.05 0.04 0.03 0.04 0.04 0.06 0.07 0.09 0.16 0.14 0.08 0.06 0.05 0.04 0.03 0.03 0.03 0.03
0.00 0.00 0.00 0.00 0.01 0.01 0.02 0.02 0.04 0.05 0.03 0.02 0.01 0.02 0.02 0.03 0.02 0.01 0.01 0.02 0.02 0.06 0.10 0.11 0.09 0.07 0.05 0.05 0.05 0.05 0.06 0.06 0.05 0.04 0.03 0.03 0.05 0.06 0.08 0.09 0.13 0.11 0.07 0.05 0.04 0.02 0.02 0.03 0.03
0.00 0.00 0.00 0.00 0.01 0.01 0.02 0.02 0.02 0.02 0.01 0.01 0.01 0.02 0.02 0.02 0.01 0.01 0.01 0.02 0.02 0.02 0.04 0.04 0.03 0.03 0.03 0.04 0.05 0.04 0.04 0.06 0.07 0.06 0.03 0.03 0.04 0.05 0.05 0.05 0.07 0.09 0.07 0.04 0.03 0.02 0.02 0.02 0.01
0.00 0.00 0.00 0.00 0.01 0.01 0.01 0.01 0.01 0.01 0.01 0.01 0.01 0.02 0.01 0.01 0.01 0.01 0.01 0.02 0.02 0.02 0.03 0.02 0.01 0.01 0.02 0.03 0.05 0.04 0.05 0.08 0.07 0.07 0.04 0.02 0.03 0.04 0.04 0.03 0.03 0.05 0.05 0.04 0.03 0.01 0.01 0.01 0.01
0.00 0.00 0.00 0.01 0.01 0.01 0.01 0.01 0.01 0.02 0.02 0.01 0.01 0.01 0.01 0.01 0.01 0.01 0.02 0.02 0.01 0.02 0.02 0.02 0.01 0.01 0.02 0.03 0.04 0.04 0.04 0.06 0.06 0.05 0.04 0.02 0.02 0.03 0.04 0.02 0.02 0.02 0.03 0.03 0.02 0.02 0.01 0.01 0.01
0.00 0.00 0.00 0.00 0.00 0.00 0.01 0.01 0.04 0.04 0.05 0.05 0.02 0.01 0.02 0.02 0.02 0.02 0.01 0.01 0.01 0.01 0.01 0.01 0.01 0.01 0.02 0.03 0.04 0.04 0.03 0.03 0.04 0.03 0.02 0.02 0.02 0.03 0.03 0.02 0.02 0.02 0.02 0.02 0.02 0.01 0.01 0.01 0.01
0.00 0.00 0.00 0.00 0.00 0.00 0.01 0.03 0.05 0.05 0.05 0.04 0.03 0.02 0.02 0.02 0.01 0.01 0.01 0.00 0.01 0.01 0.01 0.01 0.01 0.02 0.03 0.04 0.03 0.02 0.01 0.01 0.02 0.03 0.03 0.03 0.03 0.03 0.02 0.02 0.02 0.02 0.02 0.01 0.01 0.01 0.01 0.01 0.01
0.00 0.00 0.00 0.00 0.00 0.00 0.01 0.02 0.02 0.03 0.02 0.01 0.01 0.01 0.01 0.01 0.01 0.00 0.00 0.00 0.01 0.01 0.01 0.01 0.01 0.02 0.03 0.03 0.02 0.02 0.01 0.01 0.02 0.03 0.04 0.04 0.04 0.02 0.02 0.02 0.01 0.01 0.01 0.01 0.01 0.01 0.01 0.01 0.01
0.00 0.00 0.00 0.00 0.00 0.00 0.01 0.02 0.02 0.02 0.01 0.01 0.00 0.00 0.00 0.01 0.01 0.00 0.00 0.01 0.01 0.01 0.01 0.01 0.01 0.02 0.04 0.03 0.02 0.02 0.02 0.03 0.03 0.03 0.04 0.03 0.02 0.01 0.00 0.01 0.01 0.01 0.01 0.01 0.01 0.02 0.02 0.02 0.02
0.00 0.00 0.00 0.00 0.00 0.00 0.00 0.01 0.01 0.01 0.01 0.00 0.01 0.01 0.00 0.00 0.01 0.01 0.02 0.02 0.01 0.01 0.02 0.02 0.02 0.03 0.07 0.07 0.05 0.03 0.03 0.04 0.04 0.03 0.04 0.03 0.01 0.00 0.01 0.01 0.01 0.01 0.01 0.02 0.02 0.02 0.02 0.03 0.03
0.00 0.00 0.00 0.00 0.00 0.00 0.00 0.01 0.01 0.01 0.01 0.01 0.01 0.01 0.01 0.01 0.01 0.01 0.02 0.02 0.02 0.02 0.03 0.04 0.06 0.06 0.08 0.06 0.05 0.04 0.03 0.03 0.03 0.03 0.05 0.03 0.01 0.00 0.01 0.01 0.01 0.01 0.01 0.02 0.01 0.01 0.02 0.04 0.03
MSLP
1010.16 1011.43 1012.81 1014.04 1014.93 1015.32 1015.19 1014.61 1013.74 1012.79 1011.97 1011.40 1011.16 1011.21 1011.43 1011.70 1011.87 1011.86 1011.65 1011.29 1010.87 1010.52 1010.33 1010.35 1010.58 1010.96 1011.40 1011.82 1012.16 1012.39 1012.54 1012.65 1012.79 1013.02 1013.35 1013.77 1014.24 1014.71 1015.12 1015.44 1015.67 1015.81 1015.92 1016.03 1016.16 1016.31 1016.49 1016.66 1016.78
1010.59 1012.00 1013.43 1014.62 1015.38 1015.58 1015.23 1014.42 1013.34 1012.22 1011.27 1010.63 1010.35 1010.38 1010.62 1010.91 1011.12 1011.16 1011.01 1010.72 1010.40 1010.14 1010.05 1010.15 1010.45 1010.89 1011.38 1011.85 1012.23 1012.51 1012.71 1012.87 1013.06 1013.31 1013.65 1014.05 1014.48 1014.89 1015.24 1015.50 1015.68 1015.81 1015.92 1016.04 1016.19 1016.37 1016.54 1016.70 1016.80
1011.11 1012.58 1013.97 1015.04 1015.62 1015.61 1015.05 1014.06 1012.85 1011.65 1010.66 1010.01 1009.74 1009.79 1010.03 1010.32 1010.53 1010.58 1010.46 1010.23 1009.98 1009.80 1009.79 1009.98 1010.35 1010.84 1011.38 1011.88 1012.29 1012.61 1012.84 1013.05 1013.27 1013.54 1013.87 1014.25 1014.63 1014.99 1015.28 1015.50 1015.65 1015.78 1015.90 1016.04 1016.22 1016.41 1016.60 1016.75 1016.84
1011.67 1013.10 1014.36 1015.25 1015.61 1015.39 1014.65 1013.55 1012.29 1011.10 1010.17 1009.60 1009.39 1009.48 1009.74 1010.03 1010.22 1010.25 1010.12 1009.91 1009.70 1009.59 1009.65 1009.90 1010.33 1010.86 1011.41 1011.92 1012.34 1012.67 1012.92 1013.15 1013.39 1013.67 1014.00 1014.36 1014.71 1015.03 1015.29 1015.48 1015.62 1015.75 1015.90 1016.07 1016.28 1016.50 1016.70 1016.85 1016.94
1012.21 1013.52 1014.58 1015.22 1015.33 1014.91 1014.05 1012.91 1011.69 1010.62 1009.83 1009.40 1009.32 1009.48 1009.77 1010.04 1010.20 1010.19 1010.04 1009.83 1009.65 1009.58 1009.68 1009.97 1010.42 1010.95 1011.49 1011.97 1012.37 1012.68 1012.93 1013.16 1013.42 1013.71 1014.05 1014.41 1014.75 1015.05 1015.29 1015.48 1015.63 1015.79 1015.96 1016.17 1016.41 1016.65 1016.86 1017.02 1017.10
1012.67 1013.79 1014.59 1014.96 1014.83 1014.23 1013.29 1012.18 1011.08 1010.20 1009.62 1009.39 1009.47 1009.73 1010.06 1010.32 1010.44 1010.39 1010.22 1009.99 1009.82 1009.78 1009.90 1010.21 1010.65 1011.15 1011.63 1012.06 1012.40 1012.67 1012.89 1013.12 1013.38 1013.69 1014.05 1014.42 1014.78 1015.08 1015.33 1015.53 1015.70 1015.88 1016.08 1016.32 1016.58 1016.84 1017.06 1017.22 1017.31
1013.01 1013.88 1014.41 1014.50 1014.14 1013.42 1012.45 1011.42 1010.50 1009.84 1009.51 1009.50 1009.75 1010.12 1010.49 1010.76 1010.85 1010.77 1010.57 1010.34 1010.18 1010.15 1010.29 1010.59 1010.99 1011.43 1011.84 1012.18 1012.44 1012.64 1012.83 1013.04 1013.31 1013.65 1014.03 1014.44 1014.82 1015.15 1015.41 1015.62 1015.81 1016.00 1016.22 1016.48 1016.75 1017.02 1017.26 1017.42 1017.51
1013.20 1013.82 1014.07 1013.91 1013.38 1012.56 1011.61 1010.70 1009.97 1009.55 1009.46 1009.66 1010.06 1010.53 1010.95 1011.21 1011.29 1011.19 1010.99 1010.77 1010.63 1010.62 1010.77 1011.04 1011.40 1011.76 1012.08 1012.32 1012.50 1012.63 1012.77 1012.97 1013.25 1013.61 1014.03 1014.47 1014.88 1015.23 1015.51 1015.74 1015.93 1016.13 1016.35 1016.60 1016.88 1017.15 1017.39 1017.56 1017.66
1013.23 1013.62 1013.65 1013.30 1012.63 1011.78 1010.88 1010.09 1009.55 1009.34 1009.45 1009.81 1010.32 1010.86 1011.30 1011.56 1011.63 1011.54 1011.35 1011.17 1011.06 1011.09 1011.24 1011.50 1011.81 1012.09 1012.32 1012.47 1012.56 1012.63 1012.73 1012.92 1013.21 1013.60 1014.05 1014.51 1014.95 1015.32 1015.61 1015.83 1016.02 1016.20 1016.41 1016.65 1016.92 1017.19 1017.43 1017.61 1017.73
1013.13 1013.36 1013.22 1012.74 1012.02 1011.17 1010.35 1009.69 1009.30 1009.24 1009.48 1009.94 1010.50 1011.05 1011.48 1011.73 1011.80 1011.72 1011.57 1011.44 1011.39 1011.45 1011.63 1011.88 1012.14 1012.37 1012.52 1012.59 1012.61 1012.64 1012.71 1012.89 1013.19 1013.60 1014.07 1014.56 1015.01 1015.38 1015.67 1015.88 1016.04 1016.20 1016.39 1016.61 1016.87 1017.13 1017.37 1017.57 1017.72
1012.98 1013.09 1012.86 1012.34 1011.62 1010.83 1010.10 1009.55 1009.27 1009.30 1009.59 1010.06 1010.60 1011.10 1011.49 1011.71 1011.77 1011.71 1011.60 1011.53 1011.54 1011.65 1011.85 1012.10 1012.35 1012.53 1012.63 1012.65 1012.63 1012.62 1012.69 1012.86 1013.16 1013.58 1014.06 1014.56 1015.01 1015.38 1015.66 1015.85 1015.99 1016.13 1016.29 1016.50 1016.74 1017.00 1017.26 1017.48 1017.66
1012.84 1012.91 1012.66 1012.17 1011.50 1010.80 1010.17 1009.71 1009.49 1009.53 1009.79 1010.20 1010.65 1011.06 1011.36 1011.53 1011.56 1011.52 1011.46 1011.44 1011.51 1011.67 1011.90 1012.16 1012.39 1012.55 1012.63 1012.63 1012.59 1012.57 1012.62 1012.80 1013.10 1013.51 1013.99 1014.48 1014.92 1015.29 1015.55 1015.74 1015.87 1016.00 1016.15 1016.35 1016.59 1016.86 1017.13 1017.38 1017.60
1012.81 1012.87 1012.66 1012.24 1011.68 1011.08 1010.54 1010.14 1009.94 1009.94 1010.11 1010.39 1010.70 1010.97 1011.16 1011.25 1011.26 1011.22 1011.19 1011.22 1011.33 1011.52 1011.77 1012.04 1012.27 1012.43 1012.50 1012.50 1012.47 1012.45 1012.51 1012.67 1012.96 1013.36 1013.81 1014.28 1014.72 1015.08 1015.35 1015.55 1015.70 1015.84 1016.00 1016.20 1016.45 1016.74 1017.03 1017.31 1017.57
1012.93 1013.02 1012.87 1012.54 1012.10 1011.62 1011.16 1010.81 1010.58 1010.49 1010.53 1010.64 1010.77 1010.89 1010.95 1010.96 1010.92 1010.88 1010.87 1010.92 1011.05 1011.26 1011.52 1011.78 1012.01 1012.18 1012.26 1012.28 1012.26 1012.26 1012.32 1012.47 1012.73 1013.09 1013.51 1013.95 1014.38 1014.75 1015.05 1015.29 1015.48 1015.67 1015.87 1016.10 1016.37 1016.68 1017.00 1017.31 1017.59
1013.22 1013.32 1013.25 1013.02 1012.69 1012.31 1011.93 1011.58 1011.31 1011.11 1010.98 1010.91 1010.87 1010.83 1010.78 1010.70 1010.63 1010.57 1010.56 1010.61 1010.74 1010.94 1011.19 1011.44 1011.67 1011.84 1011.94 1011.99 1012.00 1012.01 1012.06 1012.19 1012.41 1012.71 1013.09 1013.50 1013.91 1014.30 1014.65 1014.96 1015.23 1015.49 1015.76 1016.04 1016.35 1016.68 1017.01 1017.34 1017.65
1013.63 1013.74 1013.72 1013.58 1013.35 1013.06 1012.72 1012.36 1012.01 1011.69 1011.41 1011.16 1010.95 1010.77 1010.62 1010.49 1010.38 1010.32 1010.30 1010.34 1010.45 1010.62 1010.83 1011.06 1011.27 1011.45 1011.58 1011.65 1011.69 1011.71 1011.76 1011.85 1012.01 1012.25 1012.57 1012.94 1013.34 1013.76 1014.17 1014.57 1014.94 1015.30 1015.65 1015.99 1016.34 1016.70 1017.05 1017.39 1017.71
1014.09 1014.19 1014.20 1014.13 1013.99 1013.75 1013.43 1013.05 1012.61 1012.15 1011.71 1011.30 1010.95 1010.67 1010.44 1010.28 1010.17 1010.11 1010.09 1010.12 1010.20 1010.33 1010.49 1010.68 1010.87 1011.05 1011.20 1011.30 1011.37 1011.41 1011.44 1011.49 1011.59 1011.75 1011.99 1012.32 1012.71 1013.16 1013.64 1014.13 1014.62 1015.08 1015.52 1015.93 1016.32 1016.70 1017.06 1017.40 1017.74
1014.51 1014.59 1014.63 1014.62 1014.53 1014.34 1014.01 1013.57 1013.03 1012.44 1011.84 1011.29 1010.82 1010.46 1010.20 1010.04 1009.95 1009.92 1009.91 1009.94 1009.99 1010.07 1010.18 1010.32 1010.48 1010.66 1010.82 1010.96 1011.05 1011.11 1011.13 1011.14 1011.17 1011.26 1011.43 1011.70 1012.07 1012.54 1013.08 1013.66 1014.25 1014.81 1015.34 1015.82 1016.25 1016.64 1017.00 1017.35 1017.68
1014.82 1014.89 1014.98 1015.02 1014.98 1014.80 1014.46 1013.94 1013.28 1012.53 1011.79 1011.10 1010.53 1010.12 1009.85 1009.72 1009.69 1009.70 1009.74 1009.77 1009.80 1009.83 1009.89 1009.98 1010.12 1010.28 1010.46 1010.63 1010.75 1010.83 1010.85 1010.83 1010.81 1010.82 1010.93 1011.14 1011.49 1011.96 1012.54 1013.18 1013.85 1014.50 1015.10 1015.63 1016.09 1016.49 1016.86 1017.20 1017.54
1014.98 1015.09 1015.24 1015.35 1015.36 1015.20 1014.81 1014.19 1013.39 1012.49 1011.57 1010.75 1010.09 1009.64 1009.39 1009.31 1009.36 1009.45 1009.54 1009.60 1009.62 1009.63 1009.64 1009.68 1009.77 1009.93 1010.11 1010.30 1010.47 1010.57 1010.60 1010.58 1010.52 1010.49 1010.53 1010.69 1011.00 1011.46 1012.06 1012.74 1013.46 1014.17 1014.82 1015.39 1015.86 1016.27 1016.63 1016.98 1017.33
1015.01 1015.20 1015.45 1015.67 1015.74 1015.58 1015.13 1014.41 1013.45 1012.36 1011.27 1010.31 1009.56 1009.07 1008.84 1008.83 1008.96 1009.15 1009.32 1009.43 1009.46 1009.44 1009.41 1009.40 1009.45 1009.58 1009.77 1009.99 1010.19 1010.33 1010.40 1010.39 1010.33 1010.28 1010.28 1010.40 1010.67 1011.10 1011.68 1012.38 1013.12 1013.85 1014.52 1015.10 1015.59 1016.00 1016.36 1016.71 1017.07
1014.95 1015.29 1015.68 1016.02 1016.17 1016.02 1015.51 1014.66 1013.53 1012.25 1010.97 1009.85 1009.00 1008.47 1008.26 1008.32 1008.55 1008.84 1009.10 1009.26 1009.32 1009.29 1009.21 1009.15 1009.16 1009.26 1009.44 1009.67 1009.91 1010.11 1010.24 1010.27 1010.24 1010.19 1010.18 1010.27 1010.51 1010.91 1011.46 1012.13 1012.85 1013.58 1014.25 1014.83 1015.32 1015.73 1016.09 1016.44 1016.80
1014.87 1015.39 1015.97 1016.44 1016.67 1016.53 1015.96 1014.98 1013.67 1012.19 1010.72 1009.44 1008.48 1007.91 1007.71 1007.83 1008.15 1008.54 1008.89 1009.13 1009.21 1009.17 1009.06 1008.95 1008.91 1008.96 1009.12 1009.37 1009.64 1009.90 1010.10 1010.20 1010.23 1010.22 1010.23 1010.31 1010.52 1010.87 1011.38 1012.01 1012.70 1013.39 1014.04 1014.61 1015.09 1015.50 1015.85 1016.20 1016.57
1014.84 1015.56 1016.31 1016.92 1017.22 1017.09 1016.45 1015.34 1013.86 1012.20 1010.55 1009.12 1008.05 1007.43 1007.24 1007.41 1007.81 1008.30 1008.74 1009.03 1009.16 1009.12 1008.97 1008.81 1008.70 1008.70 1008.84 1009.08 1009.39 1009.70 1009.97 1010.16 1010.27 1010.33 1010.37 1010.47 1010.66 1010.99 1011.44 1012.01 1012.65 1013.30 1013.92 1014.46 1014.93 1015.33 1015.68 1016.03 1016.39
1014.87 1015.76 1016.67 1017.39 1017.75 1017.60 1016.90 1015.67 1014.05 1012.22 1010.42 1008.87 1007.71 1007.04 1006.86 1007.07 1007.54 1008.11 1008.63 1008.98 1009.14 1009.11 1008.94 1008.72 1008.56 1008.51 1008.60 1008.83 1009.15 1009.52 1009.87 1010.15 1010.35 1010.48 1010.58 1010.71 1010.90 1011.20 1011.61 1012.12 1012.70 1013.30 1013.87 1014.39 1014.84 1015.23 1015.58 1015.91 1016.27
1014.96 1015.97 1016.97 1017.75 1018.12 1017.94 1017.17 1015.85 1014.12 1012.18 1010.28 1008.64 1007.43 1006.74 1006.56 1006.80 1007.33 1007.96 1008.54 1008.96 1009.15 1009.12 1008.94 1008.69 1008.47 1008.37 1008.42 1008.63 1008.96 1009.36 1009.77 1010.13 1010.42 1010.64 1010.81 1010.98 1011.18 1011.46 1011.83 1012.29 1012.81 1013.36 1013.89 1014.38 1014.82 1015.20 1015.54 1015.86 1016.19
1015.05 1016.11 1017.13 1017.90 1018.23 1018.00 1017.16 1015.78 1013.98 1012.00 1010.06 1008.40 1007.18 1006.48 1006.32 1006.59 1007.15 1007.83 1008.46 1008.92 1009.14 1009.14 1008.95 1008.69 1008.44 1008.30 1008.31 1008.49 1008.82 1009.25 1009.70 1010.13 1010.50 1010.79 1011.02 1011.23 1011.45 1011.73 1012.07 1012.48 1012.95 1013.45 1013.95 1014.42 1014.84 1015.21 1015.54 1015.85 1016.15
1015.08 1016.11 1017.06 1017.74 1017.98 1017.68 1016.79 1015.37 1013.58 1011.61 1009.71 1008.09 1006.90 1006.25 1006.10 1006.40 1006.98 1007.69 1008.34 1008.83 1009.09 1009.11 1008.95 1008.69 1008.44 1008.27 1008.27 1008.43 1008.75 1009.18 1009.66 1010.13 1010.55 1010.91 1011.20 1011.45 1011.69 1011.96 1012.28 1012.67 1013.10 1013.56 1014.03 1014.48 1014.89 1015.25 1015.57 1015.86 1016.13
1015.01 1015.91 1016.71 1017.24 1017.35 1016.95 1016.02 1014.62 1012.89 1011.01 1009.22 1007.70 1006.61 1006.02 1005.91 1006.22 1006.80 1007.51 1008.17 1008.67 1008.96 1009.02 1008.90 1008.68 1008.45 1008.30 1008.29 1008.44 1008.75 1009.17 1009.66 1010.15 1010.61 1011.00 1011.33 1011.61 1011.88 1012.16 1012.47 1012.83 1013.24 1013.67 1014.12 1014.55 1014.95 1015.30 1015.61 1015.88 1016.12
1014.80 1015.51 1016.10 1016.42 1016.37 1015.88 1014.93 1013.58 1011.97 1010.25 1008.63 1007.28 1006.31 1005.80 1005.74 1006.05 1006.62 1007.29 1007.93 1008.44 1008.75 1008.86 1008.80 1008.63 1008.46 1008.35 1008.36 1008.52 1008.82 1009.23 1009.71 1010.20 1010.66 1011.08 1011.43 1011.75 1012.03 1012.32 1012.63 1012.98 1013.37 1013.78 1014.20 1014.61 1015.00 1015.34 1015.63 1015.88 1016.09
Thickness
5794 5793 5791 5783 5763 5743 5742 5754 5765 5769 5775 5784 5786 5782 5775 5770 5764 5761 5781 5790 5789 5785 5783 5780 5777 5775 5773 5771 5769 5767 5766 5765 5763 5762 5760 5759 5757 5756 5755 5753 5752 5752 5751 5751 5751 5751 5750 5750 5749
5792 5791 5784 5770 5747 5730 5740 5758 5764 5772 5781 5787 5786 5782 5776 5773 5779 5779 5782 5786 5786 5783 5780 5777 5774 5772 5770 5768 5767 5765 5763 5761 5760 5758 5757 5756 5754 5753 5752 5751 5750 5749 5748 5748 5747 5747 5746 5746 5745
5791 5789 5771 5754 5740 5734 5747 5763 5770 5780 5787 5785 5780 5779 5775 5772 5779 5780 5783 5785 5783 5780 5777 5774 5772 5770 5768 5765 5764 5762 5760 5758 5756 5755 5754 5752 5751 5750 5749 5748 5747 5746 5745 5745 5744 5743 5742 5742 5742
5786 5775 5763 5746 5742 5749 5758 5769 5775 5776 5781 5784 5779 5771 5774 5781 5782 5784 5784 5783 5778 5776 5774 5772 5770 5767 5765 5762 5760 5758 5756 5754 5752 5751 5750 5749 5747 5746 5745 5745 5744 5743 5743 5742 5741 5739 5739 5738 5738
5778 5762 5747 5736 5744 5757 5767 5774 5777 5774 5774 5778 5776 5767 5768 5779 5784 5784 5781 5779 5775 5772 5771 5768 5766 5764 5761 5759 5757 5755 5753 5751 5750 5748 5747 5746 5745 5744 5742 5742 5741 5740 5740 5739 5738 5737 5736 5736 5736
5762 5752 5733 5730 5744 5759 5770 5777 5777 5773 5773 5775 5772 5765 5766 5777 5778 5777 5777 5775 5772 5769 5766 5764 5763 5761 5758 5756 5754 5752 5750 5748 5747 5745 5743 5742 5741 5740 5739 5738 5738 5737 5736 5736 5735 5735 5734 5733 5733
5755 5743 5735 5739 5742 5754 5769 5778 5774 5771 5770 5773 5775 5763 5765 5771 5773 5774 5772 5770 5767 5765 5762 5760 5759 5757 5755 5753 5751 5749 5747 5745 5744 5742 5741 5739 5737 5737 5736 5735 5734 5733 5733 5732 5732 5732 5731 5731 5730
5761 5745 5739 5737 5742 5752 5771 5776 5777 5774 5772 5781 5777 5763 5761 5769 5772 5770 5767 5764 5762 5760 5758 5756 5754 5753 5751 5749 5747 5745 5743 5742 5740 5739 5737 5736 5734 5733 5732 5732 5731 5730 5729 5729 5729 5729 5729 5728 5728
5763 5739 5731 5741 5746 5756 5771 5771 5775 5781 5776 5775 5776 5773 5773 5773 5770 5764 5759 5757 5756 5756 5754 5752 5750 5748 5747 5746 5745 5742 5740 5738 5737 5735 5734 5732 5730 5730 5729 5728 5728 5727 5727 5726 5726 5725 5725 5725 5725
5752 5733 5742 5756 5762 5765 5769 5769 5771 5771 5766 5766 5768 5771 5773 5770 5765 5759 5755 5752 5751 5751 5751 5750 5747 5746 5744 5743 5742 5739 5736 5735 5733 5732 5730 5728 5727 5726 5725 5725 5724 5724 5724 5723 5722 5722 5722 5722 5722
5752 5744 5755 5764 5770 5771 5768 5769 5773 5765 5758 5764 5765 5766 5767 5764 5760 5757 5754 5752 5750 5750 5749 5747 5745 5743 5741 5739 5738 5735 5733 5731 5730 5728 5726 5725 5723 5722 5721 5720 5720 5720 5719 5719 5719 5718 5718 5718 5718
5752 5757 5761 5766 5773 5771 5768 5768 5766 5765 5767 5775 5774 5770 5765 5760 5756 5754 5752 5750 5749 5747 5746 5744 5743 5741 5738 5736 5734 5732 5729 5728 5726 5725 5723 5721 5719 5718 5717 5716 5716 5715 5715 5714 5714 5714 5714 5714 5714
5753 5758 5765 5769 5770 5770 5768 5764 5764 5764 5772 5775 5772 5766 5762 5757 5754 5753 5751 5749 5747 5744 5742 5741 5740 5737 5736 5733 5730 5728 5726 5725 5723 5721 5719 5718 5716 5715 5714 5712 5712 5711 5710 5710 5709 5709 5709 5709 5710
5757 5759 5762 5766 5768 5769 5763 5762 5762 5763 5769 5767 5765 5761 5759 5756 5753 5750 5747 5745 5744 5742 5740 5738 5737 5735 5733 5730 5728 5726 5723 5721 5719 5718 5716 5714 5713 5711 5710 5708 5707 5706 5706 5705 5705 5704 5704 5704 5704
5758 5753 5756 5761 5764 5764 5762 5753 5757 5764 5764 5760 5759 5758 5756 5754 5753 5750 5748 5745 5743 5740 5738 5736 5735 5732 5730 5727 5724 5722 5719 5717 5715 5714 5712 5710 5709 5707 5705 5703 5702 5702 5701 5700 5700 5699 5699 5699 5699
5750 5741 5736 5752 5758 5760 5752 5738 5757 5763 5759 5754 5755 5754 5752 5751 5750 5749 5747 5744 5742 5739 5736 5734 5733 5730 5726 5723 5720 5718 5715 5713 5711 5709 5707 5705 5704 5703 5701 5699 5698 5697 5696 5695 5694 5693 5692 5692 5692
5731 5724 5729 5741 5754 5753 5746 5739 5754 5758 5755 5751 5750 5750 5748 5747 5746 5745 5745 5743 5740 5737 5734 5732 5729 5726 5723 5720 5717 5714 5712 5709 5706 5704 5703 5701 5700 5698 5696 5694 5693 5692 5690 5689 5688 5687 5686 5685 5685
5721 5723 5726 5730 5745 5746 5739 5739 5749 5753 5751 5749 5748 5747 5745 5744 5743 5743 5742 5740 5738 5735 5732 5729 5726 5724 5721 5717 5713 5710 5707 5704 5702 5699 5698 5697 5695 5693 5691 5689 5688 5687 5685 5683 5682 5680 5680 5679 5679
5733 5727 5724 5733 5745 5740 5736 5738 5745 5748 5747 5745 5744 5743 5742 5742 5743 5741 5739 5737 5734 5731 5728 5725 5722 5720 5717 5713 5709 5705 5702 5699 5697 5695 5694 5692 5690 5688 5687 5685 5683 5682 5680 5678 5676 5675 5673 5672 5673
5731 5723 5723 5734 5744 5739 5732 5733 5742 5744 5745 5745 5743 5741 5740 5738 5737 5737 5736 5734 5730 5728 5726 5722 5720 5717 5713 5710 5706 5703 5699 5696 5694 5692 5690 5689 5686 5684 5683 5681 5679 5678 5675 5673 5671 5669 5667 5667 5666
5729 5723 5725 5727 5734 5736 5729 5725 5732 5740 5744 5744 5742 5741 5739 5737 5734 5734 5732 5730 5728 5725 5722 5721 5717 5714 5711 5707 5703 5699 5695 5692 5689 5687 5686 5685 5683 5681 5680 5678 5675 5673 5671 5669 5667 5665 5663 5661 5660
5723 5738 5735 5730 5718 5710 5719 5700 5722 5730 5733 5737 5737 5736 5736 5736 5734 5731 5729 5727 5725 5723 5721 5718 5715 5711 5708 5704 5699 5695 5690 5686 5685 5683 5682 5681 5680 5678 5676 5674 5672 5669 5667 5665 5663 5662 5659 5657 5655
5735 5743 5735 5728 5716 5706 5709 5700 5710 5724 5724 5730 5734 5736 5736 5735 5732 5729 5727 5725 5723 5721 5717 5714 5710 5707 5703 5700 5696 5691 5687 5684 5682 5680 5678 5676 5675 5674 5672 5670 5667 5665 5663 5661 5659 5657 5655 5653 5651
5744 5733 5724 5712 5704 5693 5704 5697 5703 5714 5724 5731 5734 5736 5735 5733 5730 5727 5725 5722 5719 5717 5713 5709 5706 5702 5699 5695 5692 5688 5684 5681 5678 5676 5673 5672 5670 5669 5668 5666 5663 5661 5659 5657 5655 5653 5651 5650 5648
5735 5713 5693 5691 5683 5687 5705 5700 5705 5727 5734 5735 5735 5734 5733 5730 5726 5722 5719 5717 5715 5711 5708 5705 5702 5697 5695 5691 5688 5685 5682 5679 5676 5673 5670 5667 5665 5664 5663 5662 5659 5657 5655 5654 5652 5650 5648 5646 5645
5728 5717 5693 5682 5678 5686 5700 5697 5714 5732 5736 5737 5735 5732 5729 5725 5722 5719 5717 5714 5711 5708 5705 5702 5698 5694 5691 5688 5684 5682 5679 5676 5673 5671 5667 5664 5662 5660 5659 5657 5655 5653 5651 5650 5648 5646 5644 5643 5641
5724 5714 5715 5693 5687 5681 5689 5703 5719 5731 5729 5729 5729 5727 5723 5721 5718 5716 5713 5710 5707 5704 5702 5699 5695 5692 5689 5685 5682 5678 5676 5673 5670 5668 5664 5661 5659 5657 5655 5653 5651 5649 5647 5646 5644 5642 5640 5639 5637
5735 5720 5701 5690 5677 5674 5687 5694 5701 5717 5720 5721 5721 5719 5718 5716 5713 5711 5709 5706 5704 5701 5699 5696 5693 5690 5686 5683 5679 5676 5673 5670 5667 5664 5660 5658 5656 5654 5652 5650 5648 5645 5643 5642 5640 5638 5636 5634 5633
5722 5715 5702 5688 5686 5675 5673 5689 5718 5717 5719 5717 5717 5716 5713 5710 5708 5706 5705 5704 5701 5698 5696 5693 5690 5686 5683 5680 5676 5672 5669 5667 5663 5660 5658 5655 5653 5650 5648 5646 5643 5641 5639 5638 5636 5634 5633 5631 5629
5730 5718 5704 5693 5686 5680 5676 5688 5722 5719 5718 5716 5714 5713 5710 5708 5705 5703 5701 5699 5697 5694 5692 5690 5686 5683 5680 5676 5673 5670 5666 5664 5660 5657 5655 5652 5649 5647 5644 5642 5639 5637 5635 5634 5632 5630 5629 5627 5625